Regional Weather Roundup
Issued by NWS

Home | Current Version | Previous Version | Text Only | Print | Product List | Glossary On
Versions: 1 2 3 4 5 6 7 8 9 10 11 12 13 14 15 16 17 18 19 20 21 22 23 24 25 26 27 28 29 30 31 32 33 34 35 36 37 38 39 40 41 42 43 44 45 46 47 48 49 50
000
ASUS43 KBIS 190410
RWRND

NORTH DAKOTA REGIONAL WEATHER ROUNDUP
NATIONAL WEATHER SERVICE BISMARCK ND
1100 PM CDT FRI AUG 18 2017

NOTE: "FAIR" INDICATES FEW OR NO CLOUDS BELOW 12,000 FEET WITH NO
SIGNIFICANT WEATHER AND/OR OBSTRUCTIONS TO VISIBILITY.


NDZ001>003-009>011-017-190500-
NORTHWEST NORTH DAKOTA

CITY           SKY/WX    TMP DP  RH WIND       PRES   REMARKS
WILLISTON      FAIR      68  51  54 S3        29.85S
MINOT          FAIR      68  53  58 S6        29.86S
MINOT AFB      FAIR      60  52  74 S6        29.85S
$$

NDZ018>021-031>035-040>046-190500-
SOUTHWEST NORTH DAKOTA

CITY           SKY/WX    TMP DP  RH WIND       PRES   REMARKS
BISMARCK       FAIR      62  57  83 SE3       29.91F
DICKINSON      FAIR      62  53  72 SE9       29.90S
GARRISON         N/A     63  56  78 CALM      29.89S
HETTINGER ARPT FAIR      66  52  60 SE9       29.95R
$$

NDZ004>008-012>016-024-026-027-054-190500-
NORTHEAST NORTH DAKOTA

CITY           SKY/WX    TMP DP  RH WIND       PRES   REMARKS
GRAND FORKS    FAIR      64  59  83 SW5       29.85R
GRND FRKS AFB  FAIR      60  57  91 W6        29.86S
DEVILS LAKE    FAIR      66  59  78 S3        29.89S
$$

NDZ022-023-025-028>030-036>039-047>053-190500-
SOUTHEAST NORTH DAKOTA

CITY           SKY/WX    TMP DP  RH WIND       PRES   REMARKS
FARGO          FAIR      64  60  87 SW6       29.88S
JAMESTOWN      FAIR      60  58  92 S5        29.91S
$$





USA.gov is the U.S. government's official web portal to all federal, state and local government web resources and services.